,,PA_Meas_PMT16A,,PR_Meas_QMR101_102,,RH_Meas_QMH101,,SR_Meas_QMS101,,TA_Meas_QMH101,,GenWind,,GenWind,
time,status,PA,status,PR,status,RH,status,SR,status,TA,status,DirAvg,status,SpdAvg,
2011-08-03, 00:00:05,VALID,918.799,VALID,0,VALID,94.7209,VALID,0,VALID,21.1055,VALID,302,VALID,0.459766,
2011-08-03, 00:01:05,VALID,918.818,VALID,0,VALID,94.7286,VALID,0,VALID,21.086,VALID,302,VALID,0.460938,
2011-08-03, 00:02:05,VALID,918.819,VALID,0,VALID,94.82,VALID,0,VALID,21.086,VALID,302,VALID,0.323047,
2011-08-03, 00:03:05,VALID,918.808,VALID,0,VALID,94.8353,VALID,0,VALID,21.1055,VALID,302,VALID,0.391797,
2011-08-03, 00:04:05,VALID,918.793,VALID,0,VALID,94.8505,VALID,0,VALID,21.1266,VALID,302,VALID,0.539063,
2011-08-03, 00:05:05,VALID,918.775,VALID,0,VALID,94.82,VALID,0,VALID,21.125,VALID,302,VALID,0.570703,
2011-08-03, 00:06:05,VALID,918.775,VALID,0,VALID,94.8353,VALID,0,VALID,21.1266,VALID,302,VALID,0.282813,
2011-08-03, 00:07:05,VALID,918.783,VALID,0,VALID,94.8658,VALID,0,VALID,21.125,VALID,302,VALID,0.475391,
2011-08-03, 00:08:05,VALID,918.784,VALID,0,VALID,94.8124,VALID,0,VALID,21.1461,VALID,302,VALID,0.507031,
2011-08-03, 00:09:05,VALID,918.768,VALID,0,VALID,94.82,VALID,0,VALID,21.125,VALID,302,VALID,0.391406,
2011-08-03, 00:10:05,VALID,918.765,VALID,0,VALID,94.7819,VALID,0,VALID,21.125,VALID,302,VALID,0.507813,
2011-08-03, 00:11:05,VALID,918.726,VALID,0,VALID,94.7438,VALID,0,VALID,21.125,VALID,302,VALID,0.212109,
2011-08-03, 00:12:05,VALID,918.716,VALID,0,VALID,94.7286,VALID,0,VALID,21.1445,VALID,302,VALID,0.321094,
2011-08-03, 00:13:05,VALID,918.687,VALID,0,VALID,94.7209,VALID,0,VALID,21.164,VALID,302,VALID,0.252734,
2011-08-03, 00:14:05,VALID,918.672,VALID,0,VALID,94.5761,VALID,0,VALID,21.1836,VALID,302,VALID,0.451562,
2011-08-03, 00:15:05,VALID,918.666,VALID,0,VALID,94.538,VALID,0,VALID,21.2031,VALID,302,VALID,0.150391,
2011-08-03, 00:16:05,VALID,918.693,VALID,0,VALID,94.4084,VALID,0,VALID,21.2031,VALID,302,VALID,0.240234,
2011-08-03, 00:17:05,VALID,918.706,VALID,0,VALID,94.2254,VALID,0,VALID,21.2226,VALID,302,VALID,0.143359,
2011-08-03, 00:18:05,VALID,918.718,VALID,0,VALID,94.0958,VALID,0,VALID,21.2421,VALID,302,VALID,0.164063,
2011-08-03, 00:19:05,VALID,918.697,VALID,0,VALID,94.012,VALID,0,VALID,21.3022,VALID,302,VALID,0.0730469,
2011-08-03, 00:20:05,VALID,918.693,VALID,0,VALID,93.829,VALID,0,VALID,21.3006,VALID,302,VALID,0,
2011-08-03, 00:21:05,VALID,918.666,VALID,0,VALID,93.7756,VALID,0,VALID,21.3396,VALID,302,VALID,0.173438,
2011-08-03, 00:22:05,VALID,918.648,VALID,0,VALID,93.4859,VALID,0,VALID,21.3396,VALID,302,VALID,0.642969,
2011-08-03, 00:23:05,VALID,918.661,VALID,0,VALID,93.3335,VALID,0,VALID,21.3608,VALID,302,VALID,0.666406,
2011-08-03, 00:24:05,VALID,918.644,VALID,0,VALID,93.3945,VALID,0,VALID,21.3006,VALID,302,VALID,0.469922,
2011-08-03, 00:25:05,VALID,918.646,VALID,0,VALID,93.5393,VALID,0,VALID,21.2616,VALID,302,VALID,0.592578,
2011-08-03, 00:26:05,VALID,918.645,VALID,0,VALID,93.8214,VALID,0,VALID,21.2811,VALID,302,VALID,0.457812,
2011-08-03, 00:27:05,VALID,918.634,VALID,0,VALID,93.8138,VALID,0,VALID,21.3412,VALID,302,VALID,0.307422,
2011-08-03, 00:28:05,VALID,918.628,VALID,0,VALID,93.5622,VALID,0,VALID,21.3201,VALID,302,VALID,0.225391,
2011-08-03, 00:29:05,VALID,918.623,VALID,0,VALID,93.5927,VALID,0,VALID,21.3201,VALID,302,VALID,0.495313,
2011-08-03, 00:30:05,VALID,918.602,VALID,0,VALID,93.2344,VALID,0,VALID,21.3608,VALID,302,VALID,0.577734,
2011-08-03, 00:31:05,VALID,918.595,VALID,0,VALID,93.1658,VALID,0,VALID,21.3201,VALID,302,VALID,0.612109,
2011-08-03, 00:32:05,VALID,918.626,VALID,0,VALID,93.2572,VALID,0,VALID,21.3217,VALID,302,VALID,0.595312,
2011-08-03, 00:33:05,VALID,918.636,VALID,0,VALID,93.3335,VALID,0,VALID,21.2632,VALID,302,VALID,0.932813,
2011-08-03, 00:34:05,VALID,918.621,VALID,0,VALID,93.4783,VALID,0,VALID,21.2421,VALID,302,VALID,0.901953,
2011-08-03, 00:35:05,VALID,918.636,VALID,0,VALID,93.5927,VALID,0,VALID,21.2242,VALID,302,VALID,0.827734,
2011-08-03, 00:36:05,VALID,918.626,VALID,0,VALID,93.5622,VALID,0,VALID,21.1836,VALID,302,VALID,0.721875,
2011-08-03, 00:37:05,VALID,918.597,VALID,0,VALID,93.4936,VALID,0,VALID,21.2031,VALID,302,VALID,0.708984,
2011-08-03, 00:38:05,VALID,918.637,VALID,0,VALID,93.5088,VALID,0,VALID,21.2031,VALID,302,VALID,0.699609,
2011-08-03, 00:39:05,VALID,918.597,VALID,0,VALID,93.5164,VALID,0,VALID,21.2421,VALID,302,VALID,1.03125,
2011-08-03, 00:40:05,VALID,918.611,VALID,0,VALID,93.5698,VALID,0,VALID,21.2226,VALID,302,VALID,0.877734,
2011-08-03, 00:41:05,VALID,918.618,VALID,0,VALID,93.8061,VALID,0,VALID,21.2437,VALID,302,VALID,0.664063,
2011-08-03, 00:42:05,VALID,918.647,VALID,0,VALID,94.0196,VALID,0,VALID,21.2242,VALID,303,VALID,0.819531,
2011-08-03, 00:43:05,VALID,918.612,VALID,0,VALID,94.1568,VALID,0,VALID,21.2031,VALID,303,VALID,0.632813,
2011-08-03, 00:44:05,VALID,918.625,VALID,0,VALID,94.2483,VALID,0,VALID,21.1836,VALID,303,VALID,0.653906,
2011-08-03, 00:45:05,VALID,918.627,VALID,0,VALID,94.3626,VALID,0,VALID,21.1657,VALID,303,VALID,0.163672,
2011-08-03, 00:46:05,VALID,918.583,VALID,0,VALID,94.5151,VALID,0,VALID,21.1445,VALID,303,VALID,0,
2011-08-03, 00:47:05,VALID,918.598,VALID,0,VALID,94.6066,VALID,0,VALID,21.164,VALID,303,VALID,0.626172,
2011-08-03, 00:48:05,VALID,918.615,VALID,0,VALID,94.5761,VALID,0,VALID,21.164,VALID,4,VALID,0.246875,
2011-08-03, 00:49:05,VALID,918.599,VALID,0,VALID,94.5685,VALID,0,VALID,21.1852,VALID,5,VALID,0.432031,
2011-08-03, 00:50:05,VALID,918.578,VALID,0,VALID,94.5761,VALID,0,VALID,21.125,VALID,4,VALID,0.0765625,
2011-08-03, 00:51:05,VALID,918.548,VALID,0,VALID,94.6218,VALID,0,VALID,21.1461,VALID,4,VALID,0.0804688,
2011-08-03, 00:52:05,VALID,918.575,VALID,0,VALID,94.7057,VALID,0,VALID,21.086,VALID,4,VALID,0.0242187,
2011-08-03, 00:53:05,VALID,918.535,VALID,0,VALID,94.7896,VALID,0,VALID,21.1266,VALID,4,VALID,0.0015625,
2011-08-03, 00:54:05,VALID,918.516,VALID,0,VALID,94.8734,VALID,0,VALID,21.086,VALID,4,VALID,0,
2011-08-03, 00:55:05,VALID,918.504,VALID,0,VALID,94.942,VALID,0,VALID,21.086,VALID,4,VALID,0,
2011-08-03, 00:56:05,VALID,918.478,VALID,0,VALID,94.9878,VALID,0,VALID,21.086,VALID,4,VALID,0.183594,
2011-08-03, 00:57:05,VALID,918.459,VALID,0,VALID,94.9649,VALID,0,VALID,21.086,VALID,4,VALID,0.333203,
2011-08-03, 00:58:05,VALID,918.46,VALID,0,VALID,94.9115,VALID,0,VALID,21.0665,VALID,4,VALID,0.144141,
2011-08-03, 00:59:05,VALID,918.445,VALID,0,VALID,94.9954,VALID,0,VALID,21.086,VALID,4,VALID,0.0269531,
2011-08-03, 01:00:05,VALID,918.41,VALID,0,VALID,95.0183,VALID,0,VALID,21.1055,VALID,4,VALID,0,
2011-08-03, 01:01:05,VALID,918.408,VALID,0,VALID,94.9954,VALID,0,VALID,21.1071,VALID,4,VALID,0,
2011-08-03, 01:02:05,VALID,918.382,VALID,0,VALID,94.9344,VALID,0,VALID,21.1071,VALID,4,VALID,0.644922,
2011-08-03, 01:03:05,VALID,918.388,VALID,0,VALID,94.8429,VALID,0,VALID,21.1071,VALID,5,VALID,0.847266,
2011-08-03, 01:04:05,VALID,918.374,VALID,0,VALID,94.9039,VALID,0,VALID,21.047,VALID,4,VALID,0.703125,
2011-08-03, 01:05:05,VALID,918.367,VALID,0,VALID,94.9115,VALID,0,VALID,21.008,VALID,5,VALID,0.880859,
2011-08-03, 01:06:05,VALID,918.356,VALID,0,VALID,95.0106,VALID,0,VALID,20.969,VALID,5,VALID,0.770312,
2011-08-03, 01:07:05,VALID,918.353,VALID,0,VALID,95.125,VALID,0,VALID,20.9495,VALID,4,VALID,0.630078,
2011-08-03, 01:08:05,VALID,918.372,VALID,0,VALID,95.2088,VALID,0,VALID,20.8894,VALID,4,VALID,0.565234,
2011-08-03, 01:09:05,VALID,918.334,VALID,0,VALID,95.2851,VALID,0,VALID,20.8699,VALID,5,VALID,0.346094,
2011-08-03, 01:10:05,VALID,918.358,VALID,0,VALID,95.3766,VALID,0.107441,VALID,20.8699,VALID,4,VALID,0.384766,
2011-08-03, 01:11:05,VALID,918.356,VALID,0,VALID,95.4375,VALID,0,VALID,20.8699,VALID,4,VALID,0.204297,
2011-08-03, 01:12:05,VALID,918.341,VALID,0,VALID,95.5062,VALID,0,VALID,20.8699,VALID,4,VALID,0,
2011-08-03, 01:13:05,VALID,918.329,VALID,0,VALID,95.4833,VALID,0,VALID,20.8699,VALID,5,VALID,0.244922,
2011-08-03, 01:14:05,VALID,918.328,VALID,0,VALID,95.529,VALID,0,VALID,20.8504,VALID,4,VALID,0.205469,
2011-08-03, 01:15:05,VALID,918.284,VALID,0,VALID,95.6053,VALID,0,VALID,20.8714,VALID,4,VALID,0.219141,
2011-08-03, 01:16:05,VALID,918.332,VALID,0,VALID,95.651,VALID,0,VALID,20.8504,VALID,5,VALID,0.393359,
2011-08-03, 01:17:05,VALID,918.305,VALID,0,VALID,95.651,VALID,0.107441,VALID,20.8504,VALID,4,VALID,0.427344,
2011-08-03, 01:18:05,VALID,918.308,VALID,0,VALID,95.6434,VALID,0,VALID,20.8309,VALID,4,VALID,0.255859,
2011-08-03, 01:19:05,VALID,918.281,VALID,0,VALID,95.6586,VALID,0.107441,VALID,20.8309,VALID,5,VALID,0.225391,
2011-08-03, 01:20:05,VALID,918.295,VALID,0,VALID,95.6815,VALID,0,VALID,20.8714,VALID,4,VALID,0,
2011-08-03, 01:21:05,VALID,918.283,VALID,0,VALID,95.6967,VALID,0,VALID,20.8519,VALID,4,VALID,0,
2011-08-03, 01:22:05,VALID,918.24,VALID,0,VALID,95.712,VALID,0.107441,VALID,20.8324,VALID,4,VALID,0,
2011-08-03, 01:23:05,VALID,918.248,VALID,0,VALID,95.7654,VALID,0,VALID,20.8324,VALID,4,VALID,0,
2011-08-03, 01:24:05,VALID,918.224,VALID,0,VALID,95.7654,VALID,0,VALID,20.8324,VALID,4,VALID,0,
2011-08-03, 01:25:05,VALID,918.209,VALID,0,VALID,95.7806,VALID,0,VALID,20.8129,VALID,4,VALID,0,
2011-08-03, 01:26:05,VALID,918.24,VALID,0,VALID,95.6815,VALID,0,VALID,20.7544,VALID,4,VALID,0.348828,
2011-08-03, 01:27:05,VALID,918.211,VALID,0,VALID,95.6586,VALID,0,VALID,20.7154,VALID,4,VALID,0.403906,
2011-08-03, 01:28:05,VALID,918.191,VALID,0,VALID,95.6434,VALID,0,VALID,20.6764,VALID,4,VALID,0.49375,
2011-08-03, 01:29:05,VALID,918.19,VALID,0,VALID,95.5824,VALID,0,VALID,20.639,VALID,4,VALID,0.789844,
2011-08-03, 01:30:05,VALID,918.16,VALID,0,VALID,95.6891,VALID,0,VALID,20.5789,VALID,4,VALID,0.916797,
2011-08-03, 01:31:05,VALID,918.147,VALID,0,VALID,95.7425,VALID,0,VALID,20.5578,VALID,5,VALID,0.896094,
2011-08-03, 01:32:05,VALID,918.103,VALID,0,VALID,95.8568,VALID,0,VALID,20.5399,VALID,4,VALID,0.74375,
2011-08-03, 01:33:05,VALID,918.105,VALID,0,VALID,95.9026,VALID,0,VALID,20.5609,VALID,5,VALID,0.707812,
2011-08-03, 01:34:05,VALID,918.075,VALID,0,VALID,95.9559,VALID,0,VALID,20.5609,VALID,5,VALID,0.58125,
2011-08-03, 01:35:05,VALID,918.088,VALID,0,VALID,96.0093,VALID,0,VALID,20.5399,VALID,4,VALID,0.791016,
2011-08-03, 01:36:05,VALID,918.052,VALID,0,VALID,96.0322,VALID,0,VALID,20.5399,VALID,5,VALID,0.439063,
2011-08-03, 01:37:05,VALID,918.042,VALID,0,VALID,96.0398,VALID,0,VALID,20.5204,VALID,4,VALID,0.565234,
2011-08-03, 01:38:05,VALID,918.046,VALID,0,VALID,96.0017,VALID,0,VALID,20.4813,VALID,4,VALID,0.459375,
2011-08-03, 01:39:05,VALID,918.032,VALID,0,VALID,96.1008,VALID,0,VALID,20.4813,VALID,4,VALID,0.448047,
2011-08-03, 01:40:05,VALID,918.019,VALID,0,VALID,96.1236,VALID,0,VALID,20.5009,VALID,4,VALID,0.338672,
2011-08-03, 01:41:05,VALID,918.002,VALID,0,VALID,96.1465,VALID,0,VALID,20.5219,VALID,4,VALID,0.330078,
2011-08-03, 01:42:05,VALID,917.991,VALID,0,VALID,96.1465,VALID,0,VALID,20.4813,VALID,4,VALID,0.313281,
2011-08-03, 01:43:05,VALID,918.019,VALID,0,VALID,96.1694,VALID,0,VALID,20.5009,VALID,4,VALID,0.296875,
2011-08-03, 01:44:05,VALID,918.009,VALID,0,VALID,96.2151,VALID,0,VALID,20.5204,VALID,4,VALID,0.278125,
2011-08-03, 01:45:05,VALID,918.021,VALID,0,VALID,96.2304,VALID,0,VALID,20.5399,VALID,4,VALID,0.2,
2011-08-03, 01:46:05,VALID,918.042,VALID,0,VALID,96.116,VALID,0,VALID,20.5009,VALID,4,VALID,0.0140625,
2011-08-03, 01:47:05,VALID,918.052,VALID,0,VALID,96.0398,VALID,0,VALID,20.4228,VALID,4,VALID,0.0398437,
2011-08-03, 01:48:05,VALID,918.075,VALID,0,VALID,96.177,VALID,0,VALID,20.4408,VALID,4,VALID,0.0851562,
2011-08-03, 01:49:05,VALID,918.107,VALID,0,VALID,96.2609,VALID,0,VALID,20.5219,VALID,4,VALID,0.270312,
2011-08-03, 01:50:05,VALID,918.095,VALID,0,VALID,96.2761,VALID,0,VALID,20.5609,VALID,4,VALID,0.274609,
2011-08-03, 01:51:05,VALID,918.128,VALID,0,VALID,96.2533,VALID,0.107441,VALID,20.5789,VALID,4,VALID,0.198047,
2011-08-03, 01:52:05,VALID,918.112,VALID,0,VALID,96.238,VALID,0.107441,VALID,20.5578,VALID,4,VALID,0,
2011-08-03, 01:53:05,VALID,918.134,VALID,0,VALID,96.1846,VALID,0.107441,VALID,20.5578,VALID,5,VALID,0,
2011-08-03, 01:54:05,VALID,918.171,VALID,0,VALID,96.1923,VALID,0.107441,VALID,20.5773,VALID,4,VALID,0,
2011-08-03, 01:55:05,VALID,918.154,VALID,0,VALID,96.2075,VALID,0.107441,VALID,20.5968,VALID,4,VALID,0.0828125,
2011-08-03, 01:56:05,VALID,918.154,VALID,0,VALID,96.238,VALID,0,VALID,20.6163,VALID,4,VALID,0.229297,
2011-08-03, 01:57:05,VALID,918.16,VALID,0,VALID,96.1999,VALID,0.107441,VALID,20.6374,VALID,4,VALID,0.078125,
2011-08-03, 01:58:05,VALID,918.16,VALID,0,VALID,96.2151,VALID,0.107441,VALID,20.6374,VALID,4,VALID,0.139844,
2011-08-03, 01:59:05,VALID,918.166,VALID,0,VALID,96.2456,VALID,0.107441,VALID,20.6358,VALID,4,VALID,0.220313,
2011-08-03, 02:00:05,VALID,918.144,VALID,0,VALID,96.2761,VALID,0.107441,VALID,20.6959,VALID,4,VALID,0.00195313,
2011-08-03, 02:01:05,VALID,918.146,VALID,0,VALID,96.2456,VALID,0.107441,VALID,20.6943,VALID,4,VALID,0,
2011-08-03, 02:02:05,VALID,918.165,VALID,0,VALID,96.2304,VALID,0.107441,VALID,20.7138,VALID,4,VALID,0,
2011-08-03, 02:03:05,VALID,918.179,VALID,0,VALID,96.2456,VALID,0,VALID,20.7349,VALID,4,VALID,0,
2011-08-03, 02:04:05,VALID,918.151,VALID,0,VALID,96.2228,VALID,0.107441,VALID,20.7138,VALID,4,VALID,0,
2011-08-03, 02:05:05,VALID,918.188,VALID,0,VALID,96.2151,VALID,0.107441,VALID,20.7333,VALID,4,VALID,0,
2011-08-03, 02:06:05,VALID,918.206,VALID,0,VALID,96.1846,VALID,0,VALID,20.7365,VALID,4,VALID,0,
2011-08-03, 02:07:05,VALID,918.17,VALID,0,VALID,96.1465,VALID,0,VALID,20.717,VALID,4,VALID,0,
2011-08-03, 02:08:05,VALID,918.158,VALID,0,VALID,96.1618,VALID,0,VALID,20.6959,VALID,4,VALID,0,
2011-08-03, 02:09:05,VALID,918.16,VALID,0,VALID,96.177,VALID,0,VALID,20.717,VALID,4,VALID,0,
2011-08-03, 02:10:05,VALID,918.11,VALID,0,VALID,96.1389,VALID,0,VALID,20.717,VALID,4,VALID,0,
2011-08-03, 02:11:05,VALID,918.116,VALID,0,VALID,96.1465,VALID,0,VALID,20.7154,VALID,4,VALID,0.196875,
2011-08-03, 02:12:05,VALID,918.121,VALID,0,VALID,96.1389,VALID,0,VALID,20.7365,VALID,4,VALID,0.485938,
2011-08-03, 02:13:05,VALID,918.113,VALID,0,VALID,96.1236,VALID,0,VALID,20.7154,VALID,4,VALID,0.517969,
2011-08-03, 02:14:04,VALID,918.088,VALID,0,VALID,96.0932,VALID,0,VALID,20.6959,VALID,4,VALID,0.314844,
2011-08-03, 02:15:04,VALID,918.076,VALID,0,VALID,96.055,VALID,0,VALID,20.678,VALID,4,VALID,0.0121094,
2011-08-03, 02:16:04,VALID,918.076,VALID,0,VALID,96.0627,VALID,0,VALID,20.6975,VALID,4,VALID,0,
2011-08-03, 02:17:04,VALID,918.049,VALID,0,VALID,96.0322,VALID,0,VALID,20.6975,VALID,4,VALID,0,
2011-08-03, 02:18:04,VALID,918.026,VALID,0,VALID,96.0093,VALID,0,VALID,20.6585,VALID,4,VALID,0.204688,
2011-08-03, 02:19:04,VALID,917.99,VALID,0,VALID,96.0169,VALID,0,VALID,20.639,VALID,4,VALID,0.633984,
2011-08-03, 02:20:04,VALID,918.008,VALID,0,VALID,95.9864,VALID,0,VALID,20.6179,VALID,4,VALID,0.621094,
2011-08-03, 02:21:04,VALID,917.965,VALID,0,VALID,95.9712,VALID,0,VALID,20.6163,VALID,4,VALID,0.554297,
2011-08-03, 02:22:04,VALID,917.974,VALID,0,VALID,95.9712,VALID,0.107441,VALID,20.5984,VALID,4,VALID,0.452734,
2011-08-03, 02:23:04,VALID,918.005,VALID,0,VALID,96.0017,VALID,0,VALID,20.5984,VALID,4,VALID,0.612891,
2011-08-03, 02:24:04,VALID,917.996,VALID,0,VALID,96.0017,VALID,0,VALID,20.5789,VALID,4,VALID,0.533203,
2011-08-03, 02:25:04,VALID,918.018,VALID,0,VALID,96.0017,VALID,0,VALID,20.5578,VALID,4,VALID,0.374219,
2011-08-03, 02:26:04,VALID,918.011,VALID,0,VALID,96.055,VALID,0,VALID,20.5789,VALID,4,VALID,0.316016,
2011-08-03, 02:27:04,VALID,918.005,VALID,0,VALID,96.0855,VALID,0,VALID,20.5984,VALID,4,VALID,0.246484,
2011-08-03, 02:28:04,VALID,917.995,VALID,0,VALID,96.0932,VALID,0,VALID,20.6179,VALID,4,VALID,0.507813,
2011-08-03, 02:29:04,VALID,917.999,VALID,0,VALID,96.1389,VALID,0,VALID,20.6374,VALID,4,VALID,0.639063,
2011-08-03, 02:30:04,VALID,917.984,VALID,0,VALID,96.1236,VALID,0,VALID,20.6163,VALID,256,VALID,0.808203,
2011-08-03, 02:31:04,VALID,917.961,VALID,0,VALID,96.1541,VALID,0,VALID,20.6179,VALID,256,VALID,0.771094,
2011-08-03, 02:32:04,VALID,917.987,VALID,0,VALID,96.1618,VALID,0,VALID,20.6179,VALID,256,VALID,0.651172,
2011-08-03, 02:33:04,VALID,917.991,VALID,0,VALID,96.1846,VALID,0,VALID,20.6179,VALID,256,VALID,0.00585938,
2011-08-03, 02:34:04,VALID,918.019,VALID,0,VALID,96.2075,VALID,0,VALID,20.6179,VALID,256,VALID,0.405859,
2011-08-03, 02:35:04,VALID,918.015,VALID,0,VALID,96.2304,VALID,0,VALID,20.6179,VALID,256,VALID,0.0078125,
2011-08-03, 02:36:04,VALID,918.05,VALID,0,VALID,96.2228,VALID,0,VALID,20.6179,VALID,256,VALID,0,
2011-08-03, 02:37:04,VALID,918.064,VALID,0,VALID,96.177,VALID,0,VALID,20.6179,VALID,256,VALID,0.124219,
2011-08-03, 02:38:04,VALID,918.086,VALID,0,VALID,96.1999,VALID,0,VALID,20.6179,VALID,256,VALID,0,
2011-08-03, 02:39:04,VALID,918.079,VALID,0,VALID,96.2456,VALID,0,VALID,20.6374,VALID,256,VALID,0,
2011-08-03, 02:40:04,VALID,918.067,VALID,0,VALID,96.2533,VALID,0,VALID,20.6374,VALID,256,VALID,0,
2011-08-03, 02:41:04,VALID,918.08,VALID,0,VALID,96.2228,VALID,0,VALID,20.6585,VALID,256,VALID,0.0734375,
2011-08-03, 02:42:04,VALID,918.091,VALID,0,VALID,96.1999,VALID,0,VALID,20.6585,VALID,256,VALID,0.196484,
2011-08-03, 02:43:04,VALID,918.087,VALID,0,VALID,96.1618,VALID,0,VALID,20.5984,VALID,256,VALID,0,
2011-08-03, 02:44:04,VALID,918.093,VALID,0,VALID,96.1846,VALID,0,VALID,20.5984,VALID,256,VALID,0.000390625,
2011-08-03, 02:45:04,VALID,918.099,VALID,0,VALID,96.2075,VALID,0,VALID,20.5984,VALID,256,VALID,0.230859,
2011-08-03, 02:46:04,VALID,918.088,VALID,0,VALID,96.1846,VALID,0,VALID,20.639,VALID,256,VALID,0.410937,
2011-08-03, 02:47:04,VALID,918.101,VALID,0,VALID,96.1999,VALID,0,VALID,20.6179,VALID,256,VALID,0.469922,
2011-08-03, 02:48:04,VALID,918.106,VALID,0,VALID,96.1999,VALID,0,VALID,20.6179,VALID,256,VALID,0.554688,
2011-08-03, 02:49:04,VALID,918.087,VALID,0,VALID,96.1846,VALID,0,VALID,20.6374,VALID,256,VALID,0.224219,
2011-08-03, 02:50:04,VALID,918.087,VALID,0,VALID,96.1846,VALID,0,VALID,20.639,VALID,256,VALID,0.392188,
2011-08-03, 02:51:04,VALID,918.068,VALID,0,VALID,96.1846,VALID,0,VALID,20.6179,VALID,256,VALID,0.341016,
2011-08-03, 02:52:04,VALID,918.017,VALID,0,VALID,96.177,VALID,0,VALID,20.6179,VALID,256,VALID,0.169531,
2011-08-03, 02:53:04,VALID,918.017,VALID,0,VALID,96.1923,VALID,0,VALID,20.639,VALID,256,VALID,0.00117188,
2011-08-03, 02:54:04,VALID,917.999,VALID,0,VALID,96.1541,VALID,0,VALID,20.5984,VALID,256,VALID,0.241016,
2011-08-03, 02:55:04,VALID,917.997,VALID,0,VALID,96.0855,VALID,0,VALID,20.5594,VALID,256,VALID,0.244922,
2011-08-03, 02:56:04,VALID,917.978,VALID,0,VALID,96.0932,VALID,0,VALID,20.5399,VALID,256,VALID,0.438281,
2011-08-03, 02:57:04,VALID,918.011,VALID,0,VALID,96.116,VALID,0,VALID,20.5399,VALID,256,VALID,0.491797,
2011-08-03, 02:58:04,VALID,918.018,VALID,0,VALID,96.1389,VALID,0,VALID,20.5204,VALID,256,VALID,0.466797,
2011-08-03, 02:59:04,VALID,918.011,VALID,0,VALID,96.2075,VALID,0,VALID,20.5399,VALID,256,VALID,0.510938,
2011-08-03, 03:00:04,VALID,918.03,VALID,0,VALID,96.2151,VALID,0,VALID,20.5399,VALID,256,VALID,0.397266,
2011-08-03, 03:01:04,VALID,917.985,VALID,0,VALID,96.2151,VALID,0,VALID,20.5188,VALID,256,VALID,0.421484,
2011-08-03, 03:02:04,VALID,917.959,VALID,0,VALID,96.2151,VALID,0,VALID,20.4993,VALID,256,VALID,0.4375,
2011-08-03, 03:03:04,VALID,917.98,VALID,0,VALID,96.2304,VALID,0,VALID,20.5024,VALID,256,VALID,0.619922,
2011-08-03, 03:04:04,VALID,917.953,VALID,0,VALID,96.2075,VALID,0,VALID,20.4813,VALID,256,VALID,0.530469,
2011-08-03, 03:05:04,VALID,917.953,VALID,0,VALID,96.2685,VALID,0,VALID,20.4813,VALID,256,VALID,0.737109,
2011-08-03, 03:06:04,VALID,917.907,VALID,0,VALID,96.238,VALID,0,VALID,20.4634,VALID,256,VALID,0.955469,
2011-08-03, 03:07:04,VALID,917.888,VALID,0,VALID,96.2609,VALID,0,VALID,20.4228,VALID,341,VALID,0.953906,
2011-08-03, 03:08:04,VALID,917.869,VALID,0,VALID,96.2837,VALID,0,VALID,20.4228,VALID,44,VALID,1.34414,
2011-08-03, 03:09:04,VALID,917.846,VALID,0,VALID,96.3371,VALID,0,VALID,20.4033,VALID,44,VALID,1.71641,
2011-08-03, 03:10:04,VALID,917.836,VALID,0,VALID,96.3752,VALID,0,VALID,20.4033,VALID,44,VALID,1.72422,
2011-08-03, 03:11:04,VALID,917.795,VALID,0,VALID,96.3981,VALID,0,VALID,20.4049,VALID,52,VALID,1.6043,
2011-08-03, 03:12:04,VALID,917.836,VALID,0,VALID,96.4057,VALID,0,VALID,20.3643,VALID,47,VALID,1.4832,
2011-08-03, 03:13:04,VALID,917.854,VALID,0,VALID,96.4286,VALID,0,VALID,20.3643,VALID,46,VALID,1.26523,
2011-08-03, 03:14:04,VALID,917.809,VALID,0,VALID,96.4591,VALID,0,VALID,20.3448,VALID,45,VALID,1.43242,
2011-08-03, 03:15:04,VALID,917.841,VALID,0,VALID,96.5048,VALID,0,VALID,20.3448,VALID,45,VALID,1.36133,
2011-08-03, 03:16:04,VALID,917.777,VALID,0,VALID,96.5201,VALID,0,VALID,20.3253,VALID,45,VALID,0.715625,
2011-08-03, 03:17:04,VALID,917.813,VALID,0,VALID,96.5506,VALID,0,VALID,20.3448,VALID,45,VALID,0.808984,
2011-08-03, 03:18:04,VALID,917.829,VALID,0,VALID,96.5506,VALID,0,VALID,20.3659,VALID,45,VALID,1.20469,
2011-08-03, 03:19:04,VALID,917.801,VALID,0,VALID,96.5658,VALID,0,VALID,20.3253,VALID,45,VALID,1.12656,
2011-08-03, 03:20:04,VALID,917.777,VALID,0,VALID,96.5887,VALID,0,VALID,20.3253,VALID,46,VALID,0.943359,
2011-08-03, 03:21:04,VALID,917.763,VALID,0,VALID,96.5811,VALID,0,VALID,20.2863,VALID,46,VALID,1.24492,
2011-08-03, 03:22:04,VALID,917.765,VALID,0,VALID,96.6268,VALID,0,VALID,20.3058,VALID,46,VALID,0.873438,
2011-08-03, 03:23:04,VALID,917.721,VALID,0,VALID,96.6573,VALID,0,VALID,20.3058,VALID,46,VALID,0.820313,
2011-08-03, 03:24:04,VALID,917.721,VALID,0,VALID,96.6725,VALID,0,VALID,20.3058,VALID,46,VALID,0.688672,
2011-08-03, 03:25:04,VALID,917.712,VALID,0,VALID,96.6878,VALID,0.107441,VALID,20.3058,VALID,46,VALID,0.706641,
2011-08-03, 03:26:04,VALID,917.731,VALID,0,VALID,96.6954,VALID,0,VALID,20.3058,VALID,46,VALID,0.597266,
2011-08-03, 03:27:04,VALID,917.703,VALID,0,VALID,96.7107,VALID,0,VALID,20.3253,VALID,46,VALID,0.202344,
2011-08-03, 03:28:04,VALID,917.727,VALID,0,VALID,96.7335,VALID,0,VALID,20.3464,VALID,46,VALID,0.153906,
2011-08-03, 03:29:04,VALID,917.722,VALID,0,VALID,96.764,VALID,0,VALID,20.3643,VALID,46,VALID,0.133594,
2011-08-03, 03:30:04,VALID,917.75,VALID,0,VALID,96.7945,VALID,0,VALID,20.3643,VALID,46,VALID,0,
2011-08-03, 03:31:04,VALID,917.732,VALID,0,VALID,96.7716,VALID,0,VALID,20.3854,VALID,46,VALID,0.0683594,
2011-08-03, 03:32:04,VALID,917.778,VALID,0,VALID,96.7793,VALID,0,VALID,20.3838,VALID,46,VALID,0,
2011-08-03, 03:33:04,VALID,917.72,VALID,0,VALID,96.764,VALID,0,VALID,20.3643,VALID,46,VALID,0,
2011-08-03, 03:34:04,VALID,917.768,VALID,0,VALID,96.8021,VALID,0,VALID,20.4049,VALID,46,VALID,0,
2011-08-03, 03:35:04,VALID,917.738,VALID,0,VALID,96.7793,VALID,0,VALID,20.4244,VALID,46,VALID,0,
2011-08-03, 03:36:04,VALID,917.774,VALID,0,VALID,96.7945,VALID,0,VALID,20.4033,VALID,46,VALID,0.390625,
2011-08-03, 03:37:04,VALID,917.753,VALID,0,VALID,96.7869,VALID,0,VALID,20.4244,VALID,46,VALID,0.225781,
2011-08-03, 03:38:04,VALID,917.728,VALID,0,VALID,96.8098,VALID,0,VALID,20.4244,VALID,46,VALID,0.288672,
2011-08-03, 03:39:04,VALID,917.718,VALID,0,VALID,96.7945,VALID,0,VALID,20.4439,VALID,46,VALID,0.351172,
2011-08-03, 03:40:04,VALID,917.737,VALID,0,VALID,96.825,VALID,0,VALID,20.4439,VALID,46,VALID,0.574609,
2011-08-03, 03:41:04,VALID,917.765,VALID,0,VALID,96.8326,VALID,0,VALID,20.4228,VALID,46,VALID,0.442578,
2011-08-03, 03:42:04,VALID,917.773,VALID,0,VALID,96.8479,VALID,0,VALID,20.4423,VALID,46,VALID,0.461328,
2011-08-03, 03:43:04,VALID,917.791,VALID,0,VALID,96.8403,VALID,0,VALID,20.4618,VALID,46,VALID,0.404687,
2011-08-03, 03:44:04,VALID,917.792,VALID,0,VALID,96.8174,VALID,0,VALID,20.4829,VALID,46,VALID,0.541797,
2011-08-03, 03:45:04,VALID,917.782,VALID,0,VALID,96.8021,VALID,0,VALID,20.4829,VALID,46,VALID,0.398438,
2011-08-03, 03:46:04,VALID,917.819,VALID,0,VALID,96.8326,VALID,0,VALID,20.4634,VALID,46,VALID,0.324219,
2011-08-03, 03:47:04,VALID,917.784,VALID,0,VALID,96.8403,VALID,0,VALID,20.4813,VALID,46,VALID,0.435156,